Marysville, OH

12:17 PM EDT on March 26, 2017 (GMT -0400)
Marysville

Weather History for KMRT - November, 2011

Change the Weather History Date:

Tuesday, November 15, 2011

  Actual Average (KDLZ) Record (KDLZ)
Temperature  
Mean Temperature 52 °F -  
Max Temperature 55 °F 50 °F 71 °F (1971)
Min Temperature 50 °F 29 °F 14 °F (1986)
Degree Days  
Heating Degree Days 12    
Growing Degree Days 2 (Base 50)    
Moisture  
Dew Point 50 °F    
Average Humidity 87    
Maximum Humidity 92    
Minimum Humidity 77    
Precipitation  
Precipitation 0.04 in - - ()
Sea Level Pressure  
Sea Level Pressure 29.87 in    
Wind  
Wind Speed 8 mph (SW)    
Max Wind Speed 14 mph    
Max Gust Speed 17 mph    
Visibility 10 miles    
Events      
Averages and records for this station are not official NWS values.
T = Trace of Precipitation, MM = Missing Value Source: NWS Daily Summary

Daily Weather History Graph

Daily Weather History Graph

Search for Another Location

Airport or City:

Trip Planner

Search our weather history database for the weather conditions in past years. The results will help you decide how hot, cold, wet, or windy it might be!

Date:

Astronomy

Nov. 15, 2011 Rise Set
Actual Time 7:18 AM EST 5:16 PM EST
Civil Twilight 6:49 AM EST 5:45 PM EST
Nautical Twilight 6:16 AM EST 6:18 PM EST
Astronomical Twilight 5:44 AM EST 6:50 PM EST
Moon 9:24 PM EST (11/15) 11:17 AM EST (11/15)
Length of Visible Light 10h 56m
Length of Day
9h 58m
Waning Gibbous, 79% of the Moon is Illuminated
Nov 15
Waning Gibbous
Nov 18
Last Quarter
Nov 25
New
Dec 2
First Quarter
Dec 10
Full

Hourly Weather History & Observations

Time (EST) Temp. Dew Point Humidity Pressure Visibility Wind Dir Wind Speed Gust Speed Precip Events Conditions
12:13 AM 55.9 °F 53.6 °F 92% 29.78 in 10.0 mi WSW 9.2 mph - N/A   Overcast
12:33 AM 55.8 °F 53.2 °F 91% 29.78 in 10.0 mi WSW 6.9 mph - N/A   Overcast
12:54 AM 55.8 °F 53.2 °F 91% 29.79 in 10.0 mi SW 8.1 mph - N/A   Overcast
1:14 AM 55.6 °F 53.2 °F 92% 29.78 in 10.0 mi WSW 3.5 mph - N/A   Overcast
1:33 AM 55.4 °F 53.1 °F 92% 29.79 in 10.0 mi West 6.9 mph - N/A   Overcast
1:54 AM 55.6 °F 53.1 °F 91% 29.79 in 10.0 mi SW 8.1 mph - N/A   Overcast
1:59 AM 55.6 °F 53.1 °F 91% 29.81 in 10.0 mi West 9.2 mph - 0.01 in   Overcast
2:13 AM 55.4 °F 52.9 °F 91% 29.81 in 10.0 mi WSW 5.8 mph - N/A   Overcast
2:33 AM 55.4 °F 52.9 °F 91% 29.81 in 10.0 mi SW 8.1 mph - N/A   Overcast
2:54 AM 55.4 °F 52.7 °F 91% 29.84 in 10.0 mi WSW 12.7 mph - N/A   Overcast
3:13 AM 55.4 °F 52.3 °F 89% 29.82 in 10.0 mi SW 6.9 mph - N/A   Overcast
3:34 AM 55.2 °F 52.0 °F 89% 29.82 in 10.0 mi SW 10.4 mph - N/A   Overcast
3:54 AM 54.7 °F 51.3 °F 88% 29.83 in 10.0 mi WSW 10.4 mph - N/A   Overcast
4:13 AM 54.5 °F 50.5 °F 86% 29.81 in 10.0 mi SSW 9.2 mph - N/A   Overcast
4:34 AM 54.7 °F 47.7 °F 77% 29.81 in 10.0 mi WSW 9.2 mph - N/A   Overcast
4:54 AM 54.1 °F 47.7 °F 79% 29.83 in 10.0 mi West 8.1 mph 17.3 mph N/A   Overcast
5:13 AM 53.6 °F 47.7 °F 80% 29.83 in 10.0 mi WSW 8.1 mph - N/A   Overcast
5:34 AM 53.4 °F 47.5 °F 80% 29.84 in 10.0 mi West 5.8 mph - N/A   Overcast
5:54 AM 53.4 °F 47.1 °F 79% 29.86 in 10.0 mi WSW 11.5 mph - N/A   Overcast
6:13 AM 52.7 °F 46.6 °F 80% 29.86 in 10.0 mi WSW 11.5 mph - N/A   Overcast
6:34 AM 52.2 °F 46.8 °F 82% 29.87 in 10.0 mi WSW 10.4 mph - N/A   Overcast
6:54 AM 51.8 °F 46.6 °F 82% 29.88 in 10.0 mi West 9.2 mph - N/A   Overcast
8:13 AM 50.9 °F 46.4 °F 85% 29.91 in 10.0 mi WSW 8.1 mph - N/A   Clear
8:33 AM 50.9 °F 46.4 °F 85% 29.91 in 10.0 mi SW 6.9 mph - N/A   Clear
8:54 AM 50.5 °F 46.6 °F 86% 29.91 in 10.0 mi SW 6.9 mph - N/A   Clear
9:13 AM 50.9 °F 46.8 °F 86% 29.91 in 10.0 mi SW 9.2 mph - N/A   Clear
9:33 AM - - N/A% - - North - - N/A   Unknown
9:59 AM 51.1 °F 47.7 °F 88% 29.92 in 10.0 mi SW 8.1 mph - 0.03 in   Scattered Clouds
10:13 AM 51.1 °F 47.8 °F 89% 29.91 in 10.0 mi SW 8.1 mph - N/A   Clear
10:33 AM 51.8 °F 48.2 °F 88% 29.93 in 10.0 mi SW 9.2 mph - N/A   Clear
10:54 AM 52.0 °F 48.4 °F 88% 29.92 in 10.0 mi SW 6.9 mph - N/A   Clear
11:13 AM 51.8 °F 48.2 °F 88% 29.92 in 7.0 mi SW 9.2 mph - N/A   Scattered Clouds
11:33 AM 52.3 °F 48.6 °F 87% 29.93 in 10.0 mi SW 10.4 mph - N/A   Mostly Cloudy
11:54 AM 52.7 °F 49.1 °F 88% 29.92 in 10.0 mi SW 9.2 mph - N/A   Overcast
12:13 PM 52.9 °F 49.1 °F 87% 29.91 in 10.0 mi WSW 8.1 mph - N/A   Overcast
12:34 PM 53.1 °F 49.1 °F 86% 29.91 in 10.0 mi WSW 9.2 mph - N/A   Overcast
12:53 PM 53.2 °F 48.9 °F 85% 29.90 in 10.0 mi SW 9.2 mph - N/A   Overcast
1:13 PM 53.6 °F 49.1 °F 85% 29.91 in 10.0 mi SW 12.7 mph - N/A   Overcast
1:34 PM 54.0 °F 49.3 °F 84% 29.90 in 10.0 mi SW 13.8 mph - N/A   Overcast
1:53 PM 54.1 °F 49.5 °F 84% 29.88 in 10.0 mi SW 10.4 mph - N/A   Overcast
2:13 PM 54.5 °F 49.3 °F 83% 29.88 in 10.0 mi SW 10.4 mph - N/A   Overcast
2:34 PM 54.5 °F 48.7 °F 81% 29.88 in 10.0 mi SW 12.7 mph - N/A   Overcast
2:53 PM 54.5 °F 48.7 °F 81% 29.88 in 10.0 mi SW 9.2 mph - N/A   Scattered Clouds
3:13 PM 54.0 °F 48.4 °F 81% 29.88 in 10.0 mi SW 8.1 mph - N/A   Scattered Clouds
3:34 PM 54.5 °F 48.7 °F 81% 29.89 in 10.0 mi SW 8.1 mph - N/A   Overcast
3:53 PM 54.1 °F 48.7 °F 82% 29.90 in 10.0 mi SW 10.4 mph - N/A   Mostly Cloudy
4:13 PM 54.0 °F 48.9 °F 83% 29.89 in 10.0 mi SW 6.9 mph - N/A   Mostly Cloudy
4:34 PM 53.6 °F 48.7 °F 84% 29.89 in 10.0 mi SSW 5.8 mph - N/A   Scattered Clouds
4:54 PM 53.1 °F 48.7 °F 85% 29.89 in 10.0 mi SSW 4.6 mph - N/A   Mostly Cloudy
5:13 PM 52.7 °F 48.9 °F 87% 29.90 in 10.0 mi SSW 4.6 mph - N/A   Mostly Cloudy
5:34 PM 52.7 °F 49.1 °F 88% 29.90 in 10.0 mi South 4.6 mph - N/A   Overcast
5:53 PM 52.2 °F 49.3 °F 90% 29.90 in 10.0 mi South 5.8 mph - N/A   Overcast
6:13 PM 52.7 °F 49.6 °F 89% 29.90 in 10.0 mi South 5.8 mph - N/A   Overcast
6:34 PM 52.0 °F 49.5 °F 91% 29.90 in 10.0 mi South 9.2 mph - N/A   Mostly Cloudy
6:54 PM 52.2 °F 49.6 °F 91% 29.90 in 10.0 mi South 8.1 mph - N/A   Overcast
7:13 PM 52.3 °F 50.0 °F 92% 29.90 in 10.0 mi South 6.9 mph - N/A   Overcast
7:34 PM 52.7 °F 50.0 °F 91% 29.90 in 10.0 mi South 9.2 mph - N/A   Overcast
7:53 PM 52.7 °F 50.2 °F 91% 29.91 in 10.0 mi South 9.2 mph - N/A   Overcast
8:13 PM 52.7 °F 50.2 °F 91% 29.90 in 10.0 mi South 9.2 mph - N/A   Overcast
8:34 PM 52.7 °F 50.4 °F 92% 29.90 in 10.0 mi South 8.1 mph - N/A   Overcast
8:54 PM 52.7 °F 50.5 °F 92% 29.90 in 7.0 mi South 5.8 mph - N/A   Overcast
9:13 PM 52.7 °F 50.5 °F 92% 29.90 in 7.0 mi SSW 6.9 mph - N/A   Overcast
9:34 PM 52.9 °F 50.5 °F 92% 29.90 in 7.0 mi SSW 9.2 mph - N/A   Overcast
9:53 PM 52.9 °F 50.5 °F 92% 29.90 in 7.0 mi SSW 8.1 mph - N/A   Overcast
10:13 PM 52.9 °F 50.9 °F 93% 29.89 in 7.0 mi SSW 6.9 mph - N/A   Overcast
10:34 PM 52.9 °F 50.9 °F 93% 29.89 in 7.0 mi SSW 6.9 mph - N/A   Overcast
10:54 PM 53.1 °F 50.9 °F 92% 29.89 in 7.0 mi South 4.6 mph - N/A   Overcast
11:13 PM 53.1 °F 50.9 °F 92% 29.88 in 7.0 mi SSW 4.6 mph - N/A   Overcast
11:33 PM 52.9 °F 50.9 °F 93% 29.88 in 7.0 mi SSW 4.6 mph - N/A   Overcast
11:53 PM 53.1 °F 50.9 °F 92% 29.88 in 7.0 mi SW 3.5 mph - N/A   Overcast